DLH187 EDDH-EDDS

Flight info

Callsign DLH187
Flight time 0h 53m
Altitude 35000
Route IDEKO8B IDEKO N850 NIE DCT BERXO DCT SILWE DCT OSBIT P605 TOSTU T726 LBU
Aircraft A321/M-SDE3FGHIRWY/LB1

Departure

Time 2026-05-01 13:34
Airport Hamburg Helmut Schmidt Airport (EDDH)

Arrival

Time 2026-05-01 14:27
Airport Stuttgart Airport (EDDS)
Time Latitude Longitude Altitude Speed Heading
2026-05-01 13:01 53.63292 10.00349 51 ft 0 kts 87°
2026-05-01 13:26 53.63291 10.00329 51 ft 4 kts 87°
2026-05-01 13:26 53.63290 10.00292 51 ft 4 kts 84°
2026-05-01 13:27 53.63283 10.00253 47 ft 4 kts 41°
2026-05-01 13:27 53.63263 10.00241 49 ft 4 kts 356°
2026-05-01 13:27 53.63220 10.00246 46 ft 0 kts 356°
2026-05-01 13:31 53.63263 10.00241 49 ft 12 kts 356°
2026-05-01 13:31 53.63536 10.00119 51 ft 12 kts 320°
2026-05-01 13:32 53.63592 9.99946 50 ft 0 kts 233°
2026-05-01 13:33 53.63158 9.99076 51 ft 116 kts 230°
2026-05-01 13:33 53.61753 9.96257 630 ft 170 kts 225°
2026-05-01 13:34 53.60246 9.93129 2047 ft 171 kts 228°
2026-05-01 13:34 53.58539 9.89605 2706 ft 213 kts 227°
2026-05-01 13:35 53.56605 9.85667 3848 ft 221 kts 227°
2026-05-01 13:35 53.55598 9.83609 4184 ft 238 kts 227°
2026-05-01 13:35 53.53364 9.79010 4893 ft 267 kts 227°
2026-05-01 13:36 53.52193 9.76592 4998 ft 267 kts 228°
2026-05-01 13:36 53.51012 9.74149 5608 ft 269 kts 228°
2026-05-01 13:36 53.48467 9.69578 7151 ft 268 kts 208°
2026-05-01 13:37 53.46749 9.68418 7828 ft 267 kts 195°
2026-05-01 13:37 53.45564 9.67820 8323 ft 269 kts 194°
2026-05-01 13:37 53.43171 9.66629 9243 ft 273 kts 194°
2026-05-01 13:37 53.41342 9.65728 9938 ft 276 kts 193°
2026-05-01 13:38 53.37542 9.63861 10710 ft 303 kts 194°
2026-05-01 13:38 53.35451 9.62830 10862 ft 322 kts 194°
2026-05-01 13:38 53.33265 9.61747 11291 ft 330 kts 194°
2026-05-01 13:39 53.31051 9.60645 11859 ft 334 kts 194°
2026-05-01 13:39 53.29574 9.59909 12254 ft 336 kts 194°
2026-05-01 13:39 53.27327 9.58789 12859 ft 339 kts 194°
2026-05-01 13:39 53.25057 9.57661 13455 ft 342 kts 194°
2026-05-01 13:40 53.22767 9.56527 14049 ft 345 kts 194°
2026-05-01 13:40 53.20455 9.55389 14590 ft 348 kts 194°
2026-05-01 13:40 53.18124 9.54245 15094 ft 351 kts 194°
2026-05-01 13:40 53.15774 9.53089 15609 ft 354 kts 194°
2026-05-01 13:41 53.13395 9.51918 16042 ft 361 kts 195°
2026-05-01 13:41 53.10934 9.50708 16163 ft 375 kts 195°
2026-05-01 13:41 53.08404 9.49462 16609 ft 376 kts 195°
2026-05-01 13:41 53.05933 9.48243 17464 ft 372 kts 195°
2026-05-01 13:42 53.03411 9.47006 17715 ft 382 kts 195°
2026-05-01 13:42 53.00847 9.45755 18133 ft 386 kts 194°
2026-05-01 13:42 52.98219 9.44789 18560 ft 388 kts 186°
2026-05-01 13:42 52.95528 9.44230 18961 ft 391 kts 186°
2026-05-01 13:43 52.92820 9.43656 19379 ft 393 kts 186°
2026-05-01 13:43 52.90106 9.43071 19782 ft 395 kts 186°
2026-05-01 13:43 52.87366 9.42478 20183 ft 398 kts 186°
2026-05-01 13:43 52.84607 9.41885 20556 ft 401 kts 186°
2026-05-01 13:44 52.81857 9.41300 20856 ft 407 kts 186°
2026-05-01 13:44 52.78987 9.40691 21001 ft 416 kts 186°
2026-05-01 13:44 52.76096 9.40078 21299 ft 420 kts 186°
2026-05-01 13:44 52.73226 9.39471 21637 ft 423 kts 186°
2026-05-01 13:45 52.70285 9.38850 21988 ft 427 kts 186°
2026-05-01 13:45 52.67331 9.38230 22361 ft 429 kts 186°
2026-05-01 13:45 52.64364 9.37702 22731 ft 430 kts 181°
2026-05-01 13:45 52.61373 9.37849 23041 ft 432 kts 172°
2026-05-01 13:46 52.58418 9.38765 23377 ft 433 kts 166°
2026-05-01 13:46 52.55469 9.39893 23685 ft 436 kts 166°
2026-05-01 13:46 52.52503 9.41017 23992 ft 439 kts 166°
2026-05-01 13:46 52.49509 9.42138 24309 ft 441 kts 166°
2026-05-01 13:47 52.46513 9.43253 24634 ft 442 kts 166°
2026-05-01 13:47 52.43505 9.44368 24928 ft 444 kts 166°
2026-05-01 13:47 52.40487 9.45488 25283 ft 445 kts 166°
2026-05-01 13:47 52.37463 9.46612 25592 ft 447 kts 166°
2026-05-01 13:48 52.34417 9.47746 25823 ft 450 kts 166°
2026-05-01 13:48 52.31356 9.48883 26117 ft 451 kts 166°
2026-05-01 13:48 52.28280 9.50023 26369 ft 454 kts 166°
2026-05-01 13:48 52.25197 9.51161 26648 ft 455 kts 166°
2026-05-01 13:49 52.22099 9.52303 26923 ft 457 kts 166°
2026-05-01 13:49 52.19037 9.53432 27145 ft 458 kts 166°
2026-05-01 13:49 52.15919 9.54582 27394 ft 460 kts 166°
2026-05-01 13:49 52.12801 9.55732 27641 ft 460 kts 166°
2026-05-01 13:50 52.09672 9.56884 27897 ft 461 kts 166°
2026-05-01 13:50 52.06543 9.58034 28174 ft 461 kts 166°
2026-05-01 13:50 52.03411 9.59178 28494 ft 460 kts 167°
2026-05-01 13:50 52.00285 9.60315 28780 ft 460 kts 167°
2026-05-01 13:51 51.97172 9.61447 29101 ft 459 kts 167°
2026-05-01 13:51 51.94055 9.62578 29453 ft 458 kts 167°
2026-05-01 13:51 51.90899 9.63241 29742 ft 458 kts 175°
2026-05-01 13:51 51.87721 9.63620 30044 ft 457 kts 175°
2026-05-01 13:52 51.84550 9.63997 30305 ft 458 kts 175°
2026-05-01 13:52 51.81372 9.64368 30567 ft 458 kts 175°
2026-05-01 13:52 51.78239 9.64726 30797 ft 458 kts 175°
2026-05-01 13:52 51.75055 9.65086 31045 ft 458 kts 175°
2026-05-01 13:53 51.71880 9.65447 31282 ft 458 kts 175°
2026-05-01 13:53 51.65530 9.66178 31752 ft 458 kts 175°
2026-05-01 13:53 51.62353 9.66544 31953 ft 458 kts 175°
2026-05-01 13:54 51.59167 9.66909 32176 ft 459 kts 175°
2026-05-01 13:54 51.55976 9.67270 32409 ft 459 kts 175°
2026-05-01 13:54 51.52793 9.67633 32655 ft 459 kts 175°
2026-05-01 13:54 51.49609 9.67997 32883 ft 459 kts 175°
2026-05-01 13:55 51.46425 9.68360 33133 ft 458 kts 175°
2026-05-01 13:55 51.43249 9.68724 33389 ft 457 kts 175°
2026-05-01 13:55 51.40075 9.69085 33622 ft 457 kts 176°
2026-05-01 13:55 51.36891 9.69443 33802 ft 458 kts 176°
2026-05-01 13:56 51.33705 9.69799 33990 ft 459 kts 176°
2026-05-01 13:56 51.30513 9.70159 34181 ft 460 kts 176°
2026-05-01 13:56 51.27323 9.70520 34395 ft 460 kts 176°
2026-05-01 13:56 51.24139 9.70881 34620 ft 458 kts 176°
2026-05-01 13:57 51.21000 9.71238 34798 ft 459 kts 176°
2026-05-01 13:57 51.17819 9.71595 34989 ft 458 kts 176°
2026-05-01 13:57 51.14633 9.71950 35115 ft 460 kts 176°
2026-05-01 13:57 51.11435 9.72307 35285 ft 460 kts 176°
2026-05-01 13:58 51.05043 9.73025 35348 ft 460 kts 176°
2026-05-01 13:58 50.98646 9.73736 35344 ft 461 kts 176°
2026-05-01 13:59 50.92232 9.74449 35342 ft 461 kts 176°
2026-05-01 13:59 50.85829 9.75153 35345 ft 461 kts 176°
2026-05-01 14:00 50.79422 9.75861 35339 ft 462 kts 176°
2026-05-01 14:00 50.73001 9.76571 35352 ft 463 kts 176°
2026-05-01 14:01 50.66619 9.77282 35366 ft 463 kts 176°
2026-05-01 14:01 50.60183 9.77987 35357 ft 464 kts 176°
2026-05-01 14:02 50.53743 9.78680 35368 ft 464 kts 176°
2026-05-01 14:02 50.47305 9.79387 35377 ft 464 kts 176°
2026-05-01 14:03 50.40854 9.80089 35356 ft 465 kts 176°
2026-05-01 14:03 50.34397 9.80780 35367 ft 465 kts 176°
2026-05-01 14:04 50.27941 9.81477 35376 ft 465 kts 176°
2026-05-01 14:04 50.22574 9.82067 35363 ft 466 kts 176°
2026-05-01 14:05 50.15018 9.82880 35367 ft 465 kts 176°
2026-05-01 14:05 50.08552 9.83565 35357 ft 466 kts 176°
2026-05-01 14:06 50.02077 9.84262 35356 ft 467 kts 176°
2026-05-01 14:06 49.95600 9.84955 35353 ft 466 kts 176°
2026-05-01 14:07 49.89163 9.85640 35359 ft 467 kts 176°
2026-05-01 14:08 49.79425 9.86674 35356 ft 467 kts 176°
2026-05-01 14:08 49.72934 9.87363 35354 ft 467 kts 176°
2026-05-01 14:09 49.66444 9.88047 35356 ft 467 kts 176°
2026-05-01 14:09 49.63201 9.88387 35228 ft 468 kts 176°
2026-05-01 14:09 49.59960 9.88724 34750 ft 466 kts 176°
2026-05-01 14:09 49.56702 9.89065 33837 ft 470 kts 176°
2026-05-01 14:10 49.53439 9.89410 33016 ft 471 kts 175°
2026-05-01 14:10 49.50168 9.89757 32165 ft 472 kts 175°
2026-05-01 14:10 49.46886 9.90102 31253 ft 474 kts 175°
2026-05-01 14:10 49.43581 9.90446 30297 ft 477 kts 175°
2026-05-01 14:11 49.40266 9.90790 29255 ft 478 kts 175°
2026-05-01 14:11 49.33636 9.91482 27202 ft 479 kts 174°
2026-05-01 14:11 49.30300 9.91826 26084 ft 481 kts 175°
2026-05-01 14:12 49.26986 9.92139 24991 ft 483 kts 178°
2026-05-01 14:12 49.23595 9.91691 23964 ft 484 kts 190°
2026-05-01 14:12 49.20448 9.90103 22967 ft 482 kts 205°
2026-05-01 14:12 49.17617 9.87448 22176 ft 476 kts 217°
2026-05-01 14:13 49.15266 9.83935 21312 ft 472 kts 231°
2026-05-01 14:13 49.14006 9.81162 20736 ft 469 kts 239°
2026-05-01 14:13 49.12310 9.75137 19631 ft 464 kts 249°
2026-05-01 14:13 49.11212 9.70545 18813 ft 459 kts 249°
2026-05-01 14:14 49.10116 9.65994 17934 ft 454 kts 249°
2026-05-01 14:14 49.09027 9.61510 17110 ft 447 kts 248°
2026-05-01 14:14 49.07947 9.57097 16310 ft 441 kts 249°
2026-05-01 14:14 49.06879 9.52742 15521 ft 435 kts 248°
2026-05-01 14:15 49.05794 9.48464 14768 ft 429 kts 245°
2026-05-01 14:15 49.04365 9.44518 14065 ft 422 kts 235°
2026-05-01 14:15 49.02565 9.41045 13378 ft 413 kts 227°
2026-05-01 14:15 49.00702 9.37778 12752 ft 405 kts 227°
2026-05-01 14:16 48.98879 9.34568 12142 ft 397 kts 227°
2026-05-01 14:16 48.97091 9.31412 11579 ft 388 kts 228°
2026-05-01 14:16 48.95378 9.28388 11444 ft 368 kts 226°
2026-05-01 14:16 48.93749 9.25516 11311 ft 350 kts 227°
2026-05-01 14:17 48.92198 9.22791 11194 ft 332 kts 227°
2026-05-01 14:17 48.90720 9.20204 11069 ft 317 kts 226°
2026-05-01 14:17 48.89304 9.17730 10944 ft 303 kts 226°
2026-05-01 14:17 48.87961 9.15382 10748 ft 294 kts 226°
2026-05-01 14:18 48.86636 9.13072 10577 ft 287 kts 226°
2026-05-01 14:18 48.85322 9.10784 10511 ft 288 kts 227°
2026-05-01 14:18 48.83985 9.08458 10407 ft 288 kts 226°
2026-05-01 14:18 48.83114 9.06944 10328 ft 287 kts 225°
2026-05-01 14:19 48.81363 9.03911 9818 ft 291 kts 226°
2026-05-01 14:19 48.80043 9.01619 9361 ft 284 kts 227°
2026-05-01 14:19 48.78746 8.99372 8618 ft 280 kts 227°
2026-05-01 14:19 48.77470 8.97165 8115 ft 278 kts 227°
2026-05-01 14:20 48.76199 8.94963 7641 ft 276 kts 226°
2026-05-01 14:20 48.73683 8.90616 6725 ft 272 kts 223°
2026-05-01 14:20 48.72190 8.88860 6253 ft 273 kts 205°
2026-05-01 14:21 48.70406 8.87965 5777 ft 270 kts 186°
2026-05-01 14:21 48.68560 8.88034 5550 ft 259 kts 166°
2026-05-01 14:21 48.66873 8.88744 5439 ft 247 kts 160°
2026-05-01 14:22 48.64382 8.91982 4906 ft 235 kts 115°
2026-05-01 14:22 48.63944 8.94310 4691 ft 229 kts 95°
2026-05-01 14:22 48.64097 8.96657 4448 ft 222 kts 75°
2026-05-01 14:22 48.64525 8.98883 4150 ft 219 kts 74°
2026-05-01 14:23 48.64933 9.00976 3899 ft 201 kts 75°
2026-05-01 14:23 48.65311 9.02939 3619 ft 186 kts 76°
2026-05-01 14:23 48.65657 9.04739 3413 ft 169 kts 76°
2026-05-01 14:23 48.65971 9.06378 3171 ft 156 kts 75°
2026-05-01 14:24 48.66271 9.07947 2972 ft 150 kts 75°
2026-05-01 14:24 48.66555 9.09434 2762 ft 144 kts 75°
2026-05-01 14:24 48.66832 9.10884 2565 ft 145 kts 76°
2026-05-01 14:24 48.67112 9.12351 2382 ft 145 kts 76°
2026-05-01 14:25 48.67396 9.13837 2151 ft 146 kts 75°
2026-05-01 14:25 48.67671 9.15282 1996 ft 144 kts 73°
2026-05-01 14:25 48.67960 9.16727 1764 ft 144 kts 73°
2026-05-01 14:25 48.68230 9.18147 1609 ft 141 kts 75°
2026-05-01 14:26 48.68493 9.19589 1401 ft 142 kts 73°
2026-05-01 14:26 48.68985 9.22187 1240 ft 92 kts 74°
2026-05-01 14:26 48.69081 9.22690 1223 ft 59 kts 74°
2026-05-01 14:27 48.69184 9.22966 1217 ft 12 kts 51°
2026-05-01 14:27 48.69262 9.23092 1216 ft 20 kts 45°
2026-05-01 14:27 48.69347 9.23161 1219 ft 6 kts 360°
2026-05-01 14:28 48.69398 9.23121 1222 ft 3 kts 303°
2026-05-01 14:28 48.69406 9.23057 1224 ft 10 kts 272°
2026-05-01 14:28 48.69394 9.22948 1227 ft 10 kts 252°
2026-05-01 14:28 48.69364 9.22801 1230 ft 18 kts 253°
2026-05-01 14:29 48.69331 9.22628 1233 ft 17 kts 254°
2026-05-01 14:29 48.69291 9.22419 1238 ft 28 kts 255°
2026-05-01 14:30 48.69142 9.21635 1260 ft 23 kts 253°
2026-05-01 14:30 48.69098 9.21412 1261 ft 21 kts 254°
2026-05-01 14:30 48.69061 9.21205 1273 ft 20 kts 254°
2026-05-01 14:31 48.68990 9.20837 1276 ft 17 kts 257°
2026-05-01 14:31 48.68960 9.20676 1280 ft 16 kts 254°
2026-05-01 14:31 48.68925 9.20491 1283 ft 20 kts 254°
2026-05-01 14:31 48.68888 9.20297 1288 ft 19 kts 254°
2026-05-01 14:32 48.68858 9.20142 1292 ft 7 kts 254°
2026-05-01 14:32 48.68851 9.20105 1293 ft 3 kts 254°
2026-05-01 14:32 48.68842 9.20057 1294 ft 0 kts 254°
2026-05-01 14:33 48.68842 9.20056 1294 ft 1 kts 253°
2026-05-01 14:34 48.68827 9.19999 1295 ft 10 kts 246°
2026-05-01 14:34 48.68849 9.19899 1299 ft 11 kts 349°
2026-05-01 14:34 48.68881 9.19823 1304 ft 8 kts 252°
2026-05-01 14:34 48.68872 9.19754 1306 ft 6 kts 259°
2026-05-01 14:35 48.68848 9.19594 1310 ft 15 kts 254°
2026-05-01 14:35 48.68822 9.19461 1312 ft 9 kts 253°
2026-05-01 14:35 48.68810 9.19401 1313 ft 5 kts 253°
2026-05-01 14:35 48.68800 9.19351 1314 ft 5 kts 253°
2026-05-01 14:36 48.68805 9.19316 1314 ft 2 kts 315°
2026-05-01 14:36 48.68816 9.19312 1315 ft 2 kts 344°
2026-05-01 14:36 48.68842 9.19300 1315 ft 5 kts 343°
2026-05-01 14:36 48.68868 9.19288 1315 ft 0 kts 343°